CES874 ZPPP-ZLXY

Flight info

Callsign CES874
Flight time 1h 50m
Altitude 33100
Route DADOL W144 IGNAK W179 WFX W81 APIMI W275 NSH
Aircraft A20N/M-SDE2E3FGILRWXY/LB2

Departure

Time 2026-04-29 13:47
Airport Kunming Changshui International Airport (ZPPP)

Arrival

Time 2026-04-29 15:37
Airport Xi'an Xianyang International Airport (ZLXY)
Time Latitude Longitude Altitude Speed Heading
2026-04-29 13:20 25.10548 102.92854 6914 ft 0 kts 63°
2026-04-29 13:34 25.10546 102.92852 6914 ft 0 kts 78°
2026-04-29 13:34 25.10546 102.92838 6914 ft 2 kts 95°
2026-04-29 13:34 25.10546 102.92825 6913 ft 2 kts 65°
2026-04-29 13:35 25.10539 102.92811 6914 ft 2 kts 63°
2026-04-29 13:35 25.10535 102.92801 6914 ft 1 kts 54°
2026-04-29 13:35 25.10523 102.92793 6913 ft 2 kts 12°
2026-04-29 13:35 25.10510 102.92793 6913 ft 0 kts 340°
2026-04-29 13:36 25.10504 102.92796 6914 ft 1 kts 333°
2026-04-29 13:36 25.10502 102.92796 6914 ft 0 kts 334°
2026-04-29 13:37 25.10504 102.92796 6914 ft 1 kts 335°
2026-04-29 13:38 25.10524 102.92781 6914 ft 5 kts 322°
2026-04-29 13:38 25.10569 102.92753 6914 ft 8 kts 331°
2026-04-29 13:38 25.10624 102.92722 6914 ft 9 kts 334°
2026-04-29 13:38 25.10686 102.92689 6914 ft 10 kts 331°
2026-04-29 13:39 25.10740 102.92635 6914 ft 10 kts 312°
2026-04-29 13:39 25.10799 102.92586 6914 ft 10 kts 358°
2026-04-29 13:39 25.10866 102.92625 6913 ft 11 kts 37°
2026-04-29 13:39 25.10933 102.92682 6914 ft 12 kts 38°
2026-04-29 13:40 25.11000 102.92741 6914 ft 12 kts 38°
2026-04-29 13:40 25.11069 102.92802 6914 ft 13 kts 39°
2026-04-29 13:40 25.11151 102.92873 6913 ft 16 kts 38°
2026-04-29 13:40 25.11243 102.92953 6913 ft 16 kts 38°
2026-04-29 13:41 25.11332 102.93030 6913 ft 16 kts 38°
2026-04-29 13:41 25.11420 102.93106 6913 ft 15 kts 39°
2026-04-29 13:41 25.11506 102.93182 6913 ft 15 kts 38°
2026-04-29 13:41 25.11591 102.93255 6913 ft 15 kts 39°
2026-04-29 13:42 25.11676 102.93330 6913 ft 15 kts 37°
2026-04-29 13:42 25.11761 102.93402 6913 ft 15 kts 39°
2026-04-29 13:42 25.11847 102.93479 6913 ft 16 kts 37°
2026-04-29 13:42 25.11938 102.93558 6913 ft 17 kts 38°
2026-04-29 13:43 25.12032 102.93640 6913 ft 17 kts 39°
2026-04-29 13:43 25.12131 102.93726 6913 ft 18 kts 38°
2026-04-29 13:43 25.12232 102.93814 6913 ft 18 kts 39°
2026-04-29 13:43 25.12336 102.93903 6913 ft 19 kts 39°
2026-04-29 13:44 25.12441 102.93996 6913 ft 19 kts 38°
2026-04-29 13:44 25.12549 102.94089 6913 ft 19 kts 38°
2026-04-29 13:44 25.12657 102.94184 6913 ft 19 kts 39°
2026-04-29 13:44 25.12761 102.94275 6913 ft 17 kts 38°
2026-04-29 13:45 25.12839 102.94340 6913 ft 10 kts 25°
2026-04-29 13:45 25.12909 102.94338 6913 ft 11 kts 320°
2026-04-29 13:45 25.12957 102.94270 6913 ft 11 kts 308°
2026-04-29 13:45 25.13005 102.94198 6913 ft 11 kts 297°
2026-04-29 13:46 25.12995 102.94116 6913 ft 11 kts 226°
2026-04-29 13:46 25.12926 102.94054 6913 ft 18 kts 217°
2026-04-29 13:46 25.12637 102.93800 6913 ft 86 kts 218°
2026-04-29 13:46 25.12003 102.93246 6914 ft 144 kts 219°
2026-04-29 13:47 25.11086 102.92454 6995 ft 183 kts 217°
2026-04-29 13:47 25.10081 102.91575 7518 ft 186 kts 218°
2026-04-29 13:47 25.09159 102.90562 8150 ft 190 kts 230°
2026-04-29 13:47 25.08426 102.89355 8756 ft 191 kts 238°
2026-04-29 13:48 25.07696 102.88095 9059 ft 203 kts 234°
2026-04-29 13:48 25.06846 102.86778 9338 ft 218 kts 233°
2026-04-29 13:48 25.05919 102.85379 9544 ft 238 kts 233°
2026-04-29 13:48 25.04902 102.83862 9844 ft 255 kts 233°
2026-04-29 13:49 25.03820 102.82260 10328 ft 265 kts 233°
2026-04-29 13:49 25.02719 102.80636 11001 ft 267 kts 234°
2026-04-29 13:49 25.01603 102.78991 11710 ft 267 kts 234°
2026-04-29 13:49 25.00505 102.77374 12379 ft 268 kts 235°
2026-04-29 13:50 24.99388 102.75729 13069 ft 269 kts 236°
2026-04-29 13:50 24.98301 102.74072 13761 ft 268 kts 242°
2026-04-29 13:50 24.97718 102.72134 14374 ft 268 kts 267°
2026-04-29 13:50 24.97921 102.70106 14882 ft 275 kts 288°
2026-04-29 13:51 24.98838 102.68195 15169 ft 292 kts 301°
2026-04-29 13:51 24.99970 102.66267 15443 ft 308 kts 301°
2026-04-29 13:51 25.01152 102.64227 15709 ft 323 kts 301°
2026-04-29 13:51 25.02382 102.62094 15958 ft 338 kts 301°
2026-04-29 13:52 25.03679 102.59834 16194 ft 352 kts 301°
2026-04-29 13:52 25.04996 102.57536 16517 ft 362 kts 301°
2026-04-29 13:52 25.06464 102.55263 16994 ft 368 kts 312°
2026-04-29 13:52 25.08530 102.53574 17497 ft 375 kts 331°
2026-04-29 13:53 25.11047 102.52715 17986 ft 383 kts 350°
2026-04-29 13:53 25.13710 102.52786 18434 ft 392 kts
2026-04-29 13:53 25.16445 102.53225 18901 ft 396 kts
2026-04-29 13:53 25.19186 102.53672 19336 ft 399 kts
2026-04-29 13:54 25.21939 102.54117 19779 ft 403 kts
2026-04-29 13:54 25.24721 102.54562 20221 ft 406 kts
2026-04-29 13:54 25.27524 102.55009 20660 ft 410 kts
2026-04-29 13:54 25.30371 102.55460 21104 ft 413 kts
2026-04-29 13:55 25.33212 102.55910 21518 ft 416 kts
2026-04-29 13:55 25.36125 102.56370 21928 ft 420 kts
2026-04-29 13:55 25.39014 102.56828 22348 ft 424 kts
2026-04-29 13:55 25.41958 102.57295 22791 ft 426 kts
2026-04-29 13:56 25.44910 102.57761 23251 ft 428 kts
2026-04-29 13:56 25.47834 102.58225 23697 ft 431 kts
2026-04-29 13:56 25.50807 102.58695 24135 ft 433 kts
2026-04-29 13:56 25.53805 102.59171 24551 ft 436 kts
2026-04-29 13:57 25.56819 102.59650 24960 ft 439 kts
2026-04-29 13:57 25.59693 102.60105 25351 ft 441 kts
2026-04-29 13:57 25.62758 102.60590 25751 ft 444 kts
2026-04-29 13:57 25.65799 102.61071 26127 ft 447 kts
2026-04-29 13:58 25.68893 102.61562 26494 ft 449 kts
2026-04-29 13:58 25.71991 102.62054 26874 ft 452 kts
2026-04-29 13:58 25.75114 102.62553 27249 ft 454 kts
2026-04-29 13:58 25.78220 102.63369 27547 ft 462 kts 17°
2026-04-29 13:59 25.81126 102.64861 27980 ft 465 kts 28°
2026-04-29 13:59 25.83767 102.66959 28461 ft 467 kts 37°
2026-04-29 13:59 25.86276 102.69283 28922 ft 467 kts 38°
2026-04-29 13:59 25.88720 102.71604 29352 ft 467 kts 39°
2026-04-29 14:00 25.91179 102.73943 29773 ft 466 kts 38°
2026-04-29 14:00 25.93663 102.76294 30246 ft 465 kts 38°
2026-04-29 14:00 25.96114 102.78603 30724 ft 463 kts 37°
2026-04-29 14:00 25.98554 102.80895 31187 ft 461 kts 37°
2026-04-29 14:01 26.00995 102.83185 31645 ft 459 kts 37°
2026-04-29 14:01 26.03417 102.85457 32085 ft 457 kts 36°
2026-04-29 14:01 26.05841 102.87727 32437 ft 457 kts 36°
2026-04-29 14:01 26.08276 102.90007 32778 ft 457 kts 36°
2026-04-29 14:02 26.10714 102.92293 33099 ft 458 kts 35°
2026-04-29 14:02 26.13146 102.94576 33414 ft 459 kts 35°
2026-04-29 14:02 26.18056 102.99176 33512 ft 460 kts 35°
2026-04-29 14:03 26.22952 103.03778 33531 ft 462 kts 35°
2026-04-29 14:03 26.27833 103.08369 33545 ft 461 kts 35°
2026-04-29 14:04 26.32750 103.13006 33541 ft 460 kts 35°
2026-04-29 14:04 26.37630 103.17612 33512 ft 460 kts 35°
2026-04-29 14:05 26.42495 103.22207 33502 ft 461 kts 35°
2026-04-29 14:05 26.47447 103.26778 33495 ft 459 kts 31°
2026-04-29 14:06 26.52722 103.30734 33472 ft 454 kts 24°
2026-04-29 14:06 26.58279 103.34005 33466 ft 451 kts 20°
2026-04-29 14:07 26.63899 103.37122 33456 ft 451 kts 20°
2026-04-29 14:07 26.69496 103.40241 33442 ft 451 kts 20°
2026-04-29 14:08 26.75120 103.43391 33440 ft 452 kts 20°
2026-04-29 14:08 26.80765 103.46538 33425 ft 454 kts 20°
2026-04-29 14:09 26.86414 103.49690 33432 ft 454 kts 20°
2026-04-29 14:09 26.92071 103.52852 33415 ft 454 kts 20°
2026-04-29 14:10 26.97747 103.56029 33421 ft 456 kts 20°
2026-04-29 14:10 27.03411 103.59202 33419 ft 455 kts 20°
2026-04-29 14:11 27.09104 103.62397 33416 ft 458 kts 20°
2026-04-29 14:11 27.14771 103.65583 33420 ft 457 kts 20°
2026-04-29 14:12 27.20432 103.68770 33416 ft 456 kts 20°
2026-04-29 14:12 27.26159 103.71990 33410 ft 458 kts 20°
2026-04-29 14:13 27.31859 103.75204 33410 ft 457 kts 19°
2026-04-29 14:13 27.37596 103.78207 33407 ft 455 kts 18°
2026-04-29 14:14 27.43358 103.81166 33413 ft 455 kts 18°
2026-04-29 14:14 27.49116 103.84153 33394 ft 457 kts 18°
2026-04-29 14:15 27.54902 103.87182 33401 ft 457 kts 18°
2026-04-29 14:15 27.60655 103.90201 33400 ft 456 kts 18°
2026-04-29 14:16 27.66364 103.93198 33378 ft 454 kts 18°
2026-04-29 14:16 27.72106 103.96214 33364 ft 453 kts 17°
2026-04-29 14:17 27.77824 103.99214 33356 ft 455 kts 17°
2026-04-29 14:17 27.83564 104.02239 33345 ft 453 kts 17°
2026-04-29 14:18 27.89260 104.05245 33330 ft 452 kts 17°
2026-04-29 14:18 27.94984 104.08263 33340 ft 452 kts 17°
2026-04-29 14:19 28.00663 104.11266 33323 ft 450 kts 17°
2026-04-29 14:19 28.06311 104.14257 33316 ft 449 kts 17°
2026-04-29 14:20 28.11958 104.17244 33317 ft 451 kts 17°
2026-04-29 14:20 28.17638 104.20258 33314 ft 451 kts 17°
2026-04-29 14:21 28.23346 104.23292 33312 ft 449 kts 17°
2026-04-29 14:21 28.28965 104.26282 33309 ft 450 kts 16°
2026-04-29 14:22 28.34728 104.28835 33296 ft 438 kts
2026-04-29 14:22 28.40633 104.30267 33290 ft 427 kts 359°
2026-04-29 14:23 28.46492 104.30613 33278 ft 418 kts 349°
2026-04-29 14:23 28.52268 104.30316 33272 ft 419 kts 348°
2026-04-29 14:24 28.58050 104.29984 33273 ft 418 kts 349°
2026-04-29 14:24 28.60006 104.29874 33271 ft 417 kts 348°
2026-04-29 14:25 28.69487 104.29349 33278 ft 418 kts 349°
2026-04-29 14:25 28.75307 104.29031 33280 ft 418 kts 348°
2026-04-29 14:26 28.81096 104.28718 33281 ft 417 kts 348°
2026-04-29 14:26 28.86914 104.28404 33272 ft 416 kts 348°
2026-04-29 14:27 28.92691 104.28085 33261 ft 416 kts 348°
2026-04-29 14:28 29.01357 104.27608 33249 ft 416 kts 347°
2026-04-29 14:28 29.07148 104.27286 33243 ft 417 kts 348°
2026-04-29 14:29 29.12937 104.26967 33251 ft 415 kts 348°
2026-04-29 14:29 29.18728 104.26650 33249 ft 415 kts 348°
2026-04-29 14:30 29.24473 104.26404 33249 ft 415 kts 351°
2026-04-29 14:30 29.30279 104.26752 33251 ft 425 kts 356°
2026-04-29 14:31 29.36156 104.27682 33255 ft 425 kts 359°
2026-04-29 14:31 29.42017 104.28683 33253 ft 423 kts 359°
2026-04-29 14:32 29.47824 104.29671 33254 ft 423 kts 359°
2026-04-29 14:32 29.53646 104.30666 33257 ft 424 kts 359°
2026-04-29 14:33 29.59490 104.31658 33256 ft 422 kts 359°
2026-04-29 14:33 29.65287 104.32647 33257 ft 420 kts 359°
2026-04-29 14:34 29.71042 104.33632 33255 ft 419 kts 358°
2026-04-29 14:34 29.76780 104.34611 33253 ft 416 kts 358°
2026-04-29 14:35 29.82570 104.35599 33252 ft 420 kts 358°
2026-04-29 14:35 29.88285 104.36578 33249 ft 416 kts 358°
2026-04-29 14:36 29.94032 104.37563 33250 ft 415 kts 358°
2026-04-29 14:36 29.99743 104.38542 33252 ft 415 kts 358°
2026-04-29 14:37 30.05435 104.39521 33248 ft 414 kts 358°
2026-04-29 14:37 30.11163 104.40505 33254 ft 416 kts 358°
2026-04-29 14:38 30.16842 104.41489 33253 ft 415 kts 358°
2026-04-29 14:38 30.22524 104.42479 33253 ft 410 kts 358°
2026-04-29 14:39 30.28197 104.43468 33255 ft 411 kts 359°
2026-04-29 14:39 30.33840 104.44454 33250 ft 411 kts 358°
2026-04-29 14:40 30.39485 104.45438 33256 ft 408 kts 359°
2026-04-29 14:40 30.45113 104.46425 33254 ft 409 kts 358°
2026-04-29 14:41 30.50722 104.47407 33253 ft 408 kts 359°
2026-04-29 14:41 30.56249 104.49326 33254 ft 427 kts 14°
2026-04-29 14:41 30.58912 104.51022 33254 ft 439 kts 22°
2026-04-29 14:42 30.61365 104.53166 33255 ft 452 kts 31°
2026-04-29 14:42 30.63582 104.55781 33252 ft 463 kts 40°
2026-04-29 14:42 30.65500 104.58879 33252 ft 474 kts 49°
2026-04-29 14:43 30.68763 104.65521 33250 ft 478 kts 52°
2026-04-29 14:43 30.71984 104.72271 33248 ft 477 kts 52°
2026-04-29 14:44 30.75221 104.78983 33257 ft 478 kts 51°
2026-04-29 14:44 30.78464 104.85683 33255 ft 476 kts 51°
2026-04-29 14:45 30.81718 104.92401 33254 ft 476 kts 51°
2026-04-29 14:45 30.84944 104.99078 33251 ft 475 kts 51°
2026-04-29 14:46 30.88180 105.05782 33252 ft 476 kts 51°
2026-04-29 14:46 30.91410 105.12492 33251 ft 475 kts 51°
2026-04-29 14:47 30.94620 105.19169 33251 ft 475 kts 51°
2026-04-29 14:47 30.97832 105.25862 33253 ft 474 kts 51°
2026-04-29 14:48 31.01036 105.32549 33251 ft 473 kts 51°
2026-04-29 14:48 31.04218 105.39206 33252 ft 474 kts 51°
2026-04-29 14:49 31.07427 105.45938 33258 ft 474 kts 51°
2026-04-29 14:49 31.10620 105.52667 33268 ft 476 kts 52°
2026-04-29 14:50 31.13794 105.59378 33264 ft 475 kts 52°
2026-04-29 14:50 31.16972 105.66107 33279 ft 476 kts 52°
2026-04-29 14:51 31.20169 105.72888 33264 ft 477 kts 53°
2026-04-29 14:51 31.23325 105.79605 33277 ft 474 kts 53°
2026-04-29 14:52 31.26504 105.86367 33269 ft 475 kts 53°
2026-04-29 14:52 31.29684 105.93149 33271 ft 477 kts 53°
2026-04-29 14:53 31.32848 105.99908 33293 ft 478 kts 53°
2026-04-29 14:53 31.36404 106.06398 33277 ft 471 kts 45°
2026-04-29 14:54 31.40532 106.12209 33274 ft 461 kts 38°
2026-04-29 14:54 31.44947 106.17643 33269 ft 462 kts 38°
2026-04-29 14:55 31.49379 106.23155 33286 ft 463 kts 39°
2026-04-29 14:55 31.53752 106.28653 33288 ft 464 kts 39°
2026-04-29 14:56 31.58170 106.34209 33275 ft 465 kts 39°
2026-04-29 14:56 31.62564 106.39742 33284 ft 464 kts 40°
2026-04-29 14:57 31.66975 106.45219 33287 ft 465 kts 39°
2026-04-29 14:57 31.71413 106.50715 33275 ft 465 kts 39°
2026-04-29 14:58 31.75854 106.56235 33289 ft 465 kts 40°
2026-04-29 14:58 31.80299 106.61767 33269 ft 466 kts 40°
2026-04-29 14:59 31.84748 106.67317 33287 ft 467 kts 40°
2026-04-29 14:59 31.89181 106.72858 33289 ft 468 kts 40°
2026-04-29 15:00 31.93657 106.78454 33277 ft 470 kts 40°
2026-04-29 15:00 31.98100 106.84023 33281 ft 468 kts 40°
2026-04-29 15:01 32.02558 106.89622 33280 ft 469 kts 40°
2026-04-29 15:01 32.07027 106.95239 33293 ft 470 kts 40°
2026-04-29 15:02 32.11515 107.00829 33293 ft 469 kts 40°
2026-04-29 15:02 32.15980 107.06401 33292 ft 468 kts 40°
2026-04-29 15:03 32.20444 107.11987 33300 ft 470 kts 41°
2026-04-29 15:03 32.24493 107.18050 33307 ft 475 kts 50°
2026-04-29 15:04 32.27801 107.24870 33310 ft 483 kts 59°
2026-04-29 15:04 32.30296 107.32246 33313 ft 486 kts 65°
2026-04-29 15:05 32.32555 107.39741 33313 ft 485 kts 65°
2026-04-29 15:05 32.34821 107.47208 33314 ft 485 kts 65°
2026-04-29 15:06 32.37107 107.54693 33314 ft 484 kts 65°
2026-04-29 15:06 32.39386 107.62151 33311 ft 484 kts 65°
2026-04-29 15:07 32.41668 107.69634 33302 ft 484 kts 65°
2026-04-29 15:07 32.43930 107.77078 33301 ft 482 kts 65°
2026-04-29 15:08 32.46198 107.84551 33310 ft 482 kts 65°
2026-04-29 15:08 32.48456 107.91969 33309 ft 480 kts 62°
2026-04-29 15:09 32.51778 107.98625 33316 ft 464 kts 42°
2026-04-29 15:09 32.56499 108.03516 33327 ft 444 kts 24°
2026-04-29 15:10 32.62025 108.06423 33317 ft 426 kts
2026-04-29 15:10 32.67704 108.08399 33312 ft 425 kts
2026-04-29 15:11 32.73391 108.10368 33306 ft 425 kts
2026-04-29 15:11 32.79046 108.12354 33301 ft 425 kts
2026-04-29 15:12 32.84718 108.14359 33295 ft 424 kts
2026-04-29 15:12 32.90364 108.16361 33296 ft 423 kts
2026-04-29 15:12 32.93171 108.17357 33059 ft 423 kts
2026-04-29 15:13 32.95988 108.18359 32800 ft 420 kts
2026-04-29 15:13 32.98786 108.19355 32544 ft 418 kts
2026-04-29 15:13 33.01548 108.20338 32293 ft 416 kts
2026-04-29 15:13 33.04320 108.21324 32038 ft 415 kts
2026-04-29 15:14 33.07111 108.22318 31776 ft 415 kts
2026-04-29 15:14 33.09867 108.23301 31525 ft 417 kts
2026-04-29 15:14 33.12624 108.24284 31275 ft 417 kts
2026-04-29 15:14 33.15420 108.25281 31015 ft 417 kts
2026-04-29 15:15 33.18200 108.26274 30762 ft 417 kts
2026-04-29 15:15 33.20959 108.27261 30506 ft 417 kts
2026-04-29 15:15 33.23731 108.28253 30250 ft 417 kts
2026-04-29 15:15 33.26536 108.29258 29995 ft 417 kts
2026-04-29 15:16 33.29296 108.30286 29729 ft 420 kts 11°
2026-04-29 15:16 33.32030 108.31492 29472 ft 424 kts 14°
2026-04-29 15:16 33.34748 108.32904 29215 ft 427 kts 18°
2026-04-29 15:16 33.37412 108.34458 28953 ft 428 kts 19°
2026-04-29 15:17 33.40068 108.36044 28613 ft 428 kts 19°
2026-04-29 15:17 33.42757 108.37655 28108 ft 429 kts 19°
2026-04-29 15:17 33.45427 108.39256 27450 ft 430 kts 19°
2026-04-29 15:17 33.48082 108.40847 26843 ft 428 kts 19°
2026-04-29 15:18 33.50729 108.42437 26407 ft 423 kts 19°
2026-04-29 15:18 33.53330 108.43997 25949 ft 420 kts 19°
2026-04-29 15:18 33.55930 108.45556 25457 ft 416 kts 19°
2026-04-29 15:18 33.58514 108.47105 24961 ft 413 kts 19°
2026-04-29 15:19 33.61081 108.48646 24455 ft 410 kts 19°
2026-04-29 15:19 33.63611 108.50166 23960 ft 406 kts 19°
2026-04-29 15:19 33.66121 108.51673 23461 ft 403 kts 19°
2026-04-29 15:19 33.68614 108.53172 22989 ft 400 kts 19°
2026-04-29 15:20 33.71075 108.54650 22511 ft 397 kts 19°
2026-04-29 15:20 33.73563 108.56145 22019 ft 395 kts 19°
2026-04-29 15:20 33.75989 108.57596 21517 ft 393 kts 20°
2026-04-29 15:20 33.78448 108.59070 20991 ft 391 kts 20°
2026-04-29 15:21 33.80839 108.60503 20473 ft 389 kts 20°
2026-04-29 15:21 33.83265 108.61960 19930 ft 388 kts 21°
2026-04-29 15:21 33.85659 108.63399 19396 ft 386 kts 21°
2026-04-29 15:21 33.88052 108.64838 18861 ft 384 kts 21°
2026-04-29 15:22 33.90443 108.66280 18320 ft 382 kts 22°
2026-04-29 15:22 33.92805 108.67704 17797 ft 379 kts 22°
2026-04-29 15:22 33.95144 108.69112 17270 ft 376 kts 23°
2026-04-29 15:22 33.97471 108.70515 16735 ft 374 kts 23°
2026-04-29 15:23 33.99779 108.71910 16196 ft 371 kts 24°
2026-04-29 15:23 34.02085 108.73304 15670 ft 368 kts 24°
2026-04-29 15:23 34.04345 108.74667 15170 ft 365 kts 24°
2026-04-29 15:23 34.06603 108.76016 14759 ft 359 kts 24°
2026-04-29 15:24 34.08816 108.77338 14551 ft 347 kts 24°
2026-04-29 15:24 34.10954 108.78615 14344 ft 336 kts 24°
2026-04-29 15:24 34.13014 108.79848 14197 ft 323 kts 24°
2026-04-29 15:24 34.14993 108.81031 14054 ft 312 kts 24°
2026-04-29 15:25 34.16889 108.82167 13860 ft 301 kts 24°
2026-04-29 15:25 34.18733 108.83271 13758 ft 284 kts 24°
2026-04-29 15:25 34.20476 108.84266 13627 ft 272 kts 17°
2026-04-29 15:25 34.22274 108.84448 13473 ft 258 kts 346°
2026-04-29 15:26 34.23880 108.83546 13126 ft 257 kts 321°
2026-04-29 15:26 34.25203 108.82076 12799 ft 256 kts 318°
2026-04-29 15:26 34.26494 108.80623 12485 ft 254 kts 318°
2026-04-29 15:26 34.27804 108.79169 12178 ft 253 kts 318°
2026-04-29 15:27 34.28894 108.77556 11949 ft 249 kts 292°
2026-04-29 15:27 34.29081 108.75459 11855 ft 260 kts 260°
2026-04-29 15:27 34.28280 108.73515 11581 ft 263 kts 231°
2026-04-29 15:27 34.27027 108.71900 11381 ft 263 kts 229°
2026-04-29 15:28 34.25795 108.70269 11192 ft 261 kts 230°
2026-04-29 15:28 34.25004 108.69199 11028 ft 259 kts 230°
2026-04-29 15:28 34.23413 108.67030 10590 ft 259 kts 230°
2026-04-29 15:28 34.22221 108.65402 10271 ft 258 kts 230°
2026-04-29 15:29 34.21039 108.63784 9950 ft 257 kts 230°
2026-04-29 15:29 34.18686 108.60567 9392 ft 249 kts 231°
2026-04-29 15:30 34.17860 108.56857 8794 ft 237 kts 289°
2026-04-29 15:30 34.18714 108.55185 8385 ft 236 kts 318°
2026-04-29 15:30 34.19979 108.53944 8006 ft 238 kts 324°
2026-04-29 15:30 34.21354 108.52761 7393 ft 248 kts 326°
2026-04-29 15:31 34.22791 108.51563 6780 ft 256 kts 326°
2026-04-29 15:31 34.24292 108.50420 6353 ft 253 kts 339°
2026-04-29 15:31 34.25973 108.50131 6185 ft 237 kts 11°
2026-04-29 15:31 34.27445 108.50833 6060 ft 221 kts 36°
2026-04-29 15:32 34.28583 108.52015 5861 ft 211 kts 47°
2026-04-29 15:32 34.29541 108.53258 5757 ft 197 kts 50°
2026-04-29 15:32 34.30447 108.54501 5506 ft 194 kts 50°
2026-04-29 15:32 34.31326 108.55725 5257 ft 193 kts 51°
2026-04-29 15:33 34.32201 108.56943 5012 ft 193 kts 50°
2026-04-29 15:33 34.33084 108.58173 4769 ft 192 kts 50°
2026-04-29 15:33 34.33959 108.59386 4525 ft 191 kts 51°
2026-04-29 15:33 34.34829 108.60591 4281 ft 191 kts 50°
2026-04-29 15:34 34.35671 108.61756 4070 ft 177 kts 50°
2026-04-29 15:34 34.36447 108.62827 3812 ft 161 kts 51°
2026-04-29 15:34 34.37154 108.63804 3579 ft 147 kts 51°
2026-04-29 15:34 34.37815 108.64717 3388 ft 142 kts 51°
2026-04-29 15:35 34.38465 108.65616 3224 ft 142 kts 51°
2026-04-29 15:35 34.39115 108.66515 3054 ft 141 kts 51°
2026-04-29 15:35 34.39762 108.67411 2876 ft 141 kts 50°
2026-04-29 15:35 34.40405 108.68299 2697 ft 140 kts 50°
2026-04-29 15:36 34.41047 108.69188 2512 ft 139 kts 50°
2026-04-29 15:36 34.41678 108.70069 2325 ft 138 kts 49°
2026-04-29 15:36 34.42311 108.70950 2151 ft 138 kts 47°
2026-04-29 15:36 34.42947 108.71817 1960 ft 137 kts 47°
2026-04-29 15:37 34.43571 108.72676 1785 ft 137 kts 47°
2026-04-29 15:37 34.44205 108.73548 1606 ft 136 kts 47°
2026-04-29 15:37 34.44771 108.74329 1575 ft 102 kts 48°
2026-04-29 15:37 34.45117 108.74807 1575 ft 43 kts 52°
2026-04-29 15:38 34.45202 108.74989 1575 ft 20 kts 72°
2026-04-29 15:38 34.45235 108.75148 1575 ft 16 kts 77°
2026-04-29 15:38 34.45248 108.75271 1575 ft 12 kts 109°
2026-04-29 15:38 34.45187 108.75355 1575 ft 14 kts 137°
2026-04-29 15:39 34.45105 108.75442 1575 ft 16 kts 139°
2026-04-29 15:39 34.45016 108.75536 1575 ft 17 kts 139°
2026-04-29 15:39 34.44920 108.75637 1575 ft 18 kts 139°
2026-04-29 15:39 34.44822 108.75741 1575 ft 18 kts 138°
2026-04-29 15:40 34.44802 108.75845 1575 ft 14 kts 60°
2026-04-29 15:40 34.44866 108.75941 1575 ft 15 kts 49°
2026-04-29 15:40 34.44945 108.76051 1575 ft 18 kts 49°
2026-04-29 15:40 34.45035 108.76173 1575 ft 20 kts 49°
2026-04-29 15:41 34.45129 108.76303 1575 ft 20 kts 49°
2026-04-29 15:41 34.45224 108.76433 1575 ft 20 kts 49°
2026-04-29 15:41 34.45261 108.76541 1575 ft 14 kts 117°
2026-04-29 15:41 34.45188 108.76627 1575 ft 15 kts 138°
2026-04-29 15:42 34.45103 108.76713 1575 ft 16 kts 139°
2026-04-29 15:42 34.45028 108.76812 1575 ft 16 kts 115°
2026-04-29 15:42 34.44992 108.76939 1575 ft 16 kts 110°
2026-04-29 15:42 34.44953 108.77068 1575 ft 16 kts 109°
2026-04-29 15:43 34.44942 108.77178 1575 ft 12 kts 72°
2026-04-29 15:43 34.44990 108.77269 1575 ft 13 kts 50°
2026-04-29 15:43 34.45052 108.77354 1575 ft 13 kts 48°
2026-04-29 15:43 34.45116 108.77441 1575 ft 14 kts 49°
2026-04-29 15:44 34.45181 108.77531 1575 ft 14 kts 49°
2026-04-29 15:44 34.45175 108.77586 1575 ft 7 kts 126°
2026-04-29 15:44 34.45140 108.77634 1575 ft 5 kts 137°
2026-04-29 15:44 34.45129 108.77646 1575 ft 0 kts 137°